"Pseudo-MPEC" for P10QYv4

Created 2019 Sep 16 10:07:13 UT using Find_Orb

Click here for an explanation of pseudo-MPECs

 
 Astrometry: 
     P10QYv4  C2019 08 28]?RW`^IWH6(da?JimAstrometry6Pit-redacted;75B3Y[?6v$:F51
     P10QYv4  C2019 08 28SLP56k/;qxb6:xfclicknh:!YOCO=Ve\mahere:for-n@7*1(mSkF51
     P10QYv4  C2019 08 28hi_@/TbJUexplanationASSKJ/6aVwU=EvT)a\vgjgUY'uC[^GjYF51
     P10QYv4 ^C2019 08 29.62133803 01 23.612-40 04 45.09   ~8TLq 22.14GVNEOCP568
     P10QYv4 ^C2019 08 29.62229803 01 23.858-40 04 46.39   ~8TLq 22.10GVNEOCP568
     P10QYv4 ^C2019 08 29.62325803 01 24.093-40 04 47.61   ~8TLq 21.84GVNEOCP568
     P10QYv4 ^C2019 08 29.62421603 01 24.349-40 04 48.85   ~8TLq 22.00GVNEOCP568

Station data:
(568) Mauna Kea  (N19.826116 W155.472200)  US/Hawaii.
(F51) Pan-STARRS 1, Haleakala  (N20.707235 W156.255910)  US/Hawaii.
   Observers N. Primak, A. Schultz, S. Watters, J. Thiel, T. Goggia. Measurer
   PS1 Science Consortium. 1.8-m Ritchey-Chrétien + CCD.

Orbital elements:  P10QYv4
   Perihelion 2019 Aug 15.144443 +/- 0.0435 TT =  3:27:59 (JD 2458710.644443)
Epoch 2019 Aug 29.0 TT = JDT 2458724.5   Earth MOID: 0.0021   AutoNEOCP
M   3.63233730 +/- 0.09             (J2000 ecliptic)
n   0.26215744 +/- 0.00619          Peri.  166.07134 +/- 0.08
a   2.41784202 +/- 0.038            Node   152.71523 +/- 0.031
e   0.5856223 +/- 0.00653           Incl.   16.96166 +/- 0.11
P   3.76                   H 28.1   G  0.15   U  9.3  
q 1.00189969 +/- 0.000197    Q 3.83378436 +/- 0.0755
From 7 observations 2019 Aug. 28-29 (25.2 hr); mean residual 0".09
Residuals in arcseconds: 
190828 F51  .12+  .11-    190829 568  .07+  .03-    190829 568  .01-  .05+    
190828 F51  .18-  .15+    190829 568  .04+  .04-    
190828 F51  .06+  .05-    190829 568  .11-  .02+    

Ephemerides (geocentric):
Date (UTC) HH   RA              Dec         delta   r     elong  mag " sig PA
---- -- -- --  -------------   -----------  ------ ------ -----  --- ---- ---
2019 09 16 10  03 15 37.203   -40 40 44.34  .15532 1.0861 117.5 26.3  170 104
2019 09 16 11  03 15 36.014   -40 40 39.48  .15562 1.0863 117.6 26.3  170 104
2019 09 16 12  03 15 34.820   -40 40 34.59  .15592 1.0865 117.6 26.3  170 104
2019 09 16 13  03 15 33.620   -40 40 29.68  .15623 1.0867 117.6 26.3  170 104
2019 09 16 14  03 15 32.416   -40 40 24.74  .15653 1.0869 117.6 26.3  170 104
2019 09 16 15  03 15 31.206   -40 40 19.78  .15683 1.0871 117.6 26.3  170 104
2019 09 16 16  03 15 29.991   -40 40 14.79  .15714 1.0873 117.7 26.3  170 104
2019 09 16 17  03 15 28.770   -40 40 09.77  .15744 1.0875 117.7 26.3  170 104
2019 09 16 18  03 15 27.545   -40 40 04.72  .15774 1.0877 117.7 26.3  170 104
2019 09 16 19  03 15 26.314   -40 39 59.65  .15805 1.0879 117.7 26.3  170 104
2019 09 16 20  03 15 25.079   -40 39 54.56  .15835 1.0881 117.7 26.3  171 104
2019 09 16 21  03 15 23.838   -40 39 49.43  .15865 1.0883 117.7 26.3  171 104
2019 09 16 22  03 15 22.592   -40 39 44.28  .15896 1.0885 117.8 26.3  171 104
2019 09 16 23  03 15 21.341   -40 39 39.10  .15926 1.0887 117.8 26.3  171 104
2019 09 17 00  03 15 20.085   -40 39 33.90  .15956 1.0889 117.8 26.3  171 104
2019 09 17 01  03 15 18.824   -40 39 28.67  .15986 1.0891 117.8 26.3  171 104
2019 09 17 02  03 15 17.557   -40 39 23.41  .16017 1.0893 117.8 26.3  171 104
2019 09 17 03  03 15 16.286   -40 39 18.13  .16047 1.0895 117.9 26.3  171 104
2019 09 17 04  03 15 15.009   -40 39 12.82  .16077 1.0898 117.9 26.3  171 104
2019 09 17 05  03 15 13.728   -40 39 07.48  .16108 1.0900 117.9 26.3  171 104
2019 09 17 06  03 15 12.441   -40 39 02.11  .16138 1.0902 117.9 26.3  171 104
2019 09 17 07  03 15 11.150   -40 38 56.72  .16168 1.0904 117.9 26.3  172 104
2019 09 17 08  03 15 09.853   -40 38 51.30  .16198 1.0906 118.0 26.3  172 104
2019 09 17 09  03 15 08.552   -40 38 45.86  .16229 1.0908 118.0 26.3  172 104
2019 09 17 10  03 15 07.245   -40 38 40.38  .16259 1.0910 118.0 26.3  172 104
2019 09 17 11  03 15 05.934   -40 38 34.88  .16289 1.0912 118.0 26.3  172 104
2019 09 17 12  03 15 04.617   -40 38 29.36  .16320 1.0914 118.0 26.3  172 104
2019 09 17 13  03 15 03.296   -40 38 23.80  .16350 1.0916 118.1 26.4  172 104
2019 09 17 14  03 15 01.969   -40 38 18.22  .16380 1.0918 118.1 26.4  172 104
2019 09 17 15  03 15 00.638   -40 38 12.62  .16410 1.0921 118.1 26.4  172 104
2019 09 17 16  03 14 59.301   -40 38 06.98  .16441 1.0923 118.1 26.4  172 104
2019 09 17 17  03 14 57.960   -40 38 01.32  .16471 1.0925 118.1 26.4  172 104
2019 09 17 18  03 14 56.614   -40 37 55.63  .16501 1.0927 118.1 26.4  173 104
2019 09 17 19  03 14 55.263   -40 37 49.91  .16532 1.0929 118.2 26.4  173 104
2019 09 17 20  03 14 53.907   -40 37 44.17  .16562 1.0931 118.2 26.4  173 104
2019 09 17 21  03 14 52.546   -40 37 38.39  .16592 1.0933 118.2 26.4  173 104
2019 09 17 22  03 14 51.180   -40 37 32.59  .16622 1.0935 118.2 26.4  173 104
2019 09 17 23  03 14 49.809   -40 37 26.77  .16653 1.0937 118.2 26.4  173 104
2019 09 18 00  03 14 48.434   -40 37 20.91  .16683 1.0939 118.3 26.4  173 104
2019 09 18 01  03 14 47.053   -40 37 15.03  .16713 1.0942 118.3 26.4  173 104
2019 09 18 02  03 14 45.668   -40 37 09.12  .16743 1.0944 118.3 26.4  173 104
2019 09 18 03  03 14 44.278   -40 37 03.18  .16774 1.0946 118.3 26.4  173 104
2019 09 18 04  03 14 42.883   -40 36 57.22  .16804 1.0948 118.3 26.4  173 104
2019 09 18 05  03 14 41.483   -40 36 51.22  .16834 1.0950 118.4 26.4  173 104
2019 09 18 06  03 14 40.078   -40 36 45.20  .16865 1.0952 118.4 26.4  174 104
2019 09 18 07  03 14 38.669   -40 36 39.16  .16895 1.0954 118.4 26.4  174 104
2019 09 18 08  03 14 37.255   -40 36 33.08  .16925 1.0956 118.4 26.4  174 104
2019 09 18 09  03 14 35.836   -40 36 26.97  .16955 1.0959 118.4 26.4  174 104